Location: Boston
(42.3580°N, 71.0600°W)
Time: 18:49:41
(UTC-04:00)

Vanguard 1 - All Passes

Search period start: 17 July 2018 00:00
Search period end: 27 July 2018 00:00
Orbit: 650 x 3832 km, 34.2° (Epoch: 16 July)

Date Brightness Start Highest point End Pass type
(mag) Time Alt. Az. Time Alt. Az. Time Alt. Az.
17 Jul - 00:46:16 10° SW 00:50:06 25° SSE 00:53:49 10° ESE night (unlit)
17 Jul - 03:05:28 10° WSW 03:09:29 32° S 03:14:36 10° ESE visible
17 Jul - 05:25:19 10° WSW 05:29:25 20° SSW 05:35:02 10° SSE daylight
17 Jul - 22:48:24 10° SSW 22:51:20 14° SSE 22:53:52 10° SE visible
18 Jul - 01:06:51 10° SW 01:10:51 29° S 01:14:48 10° ESE visible
18 Jul - 03:26:21 10° WSW 03:30:16 28° S 03:35:20 10° SE visible
18 Jul - 05:47:04 10° SW 05:50:21 15° SSW 05:54:29 10° S daylight
18 Jul - 23:08:09 10° SSW 23:12:08 19° SSE 23:15:25 10° ESE visible
19 Jul - 01:27:34 10° WSW 01:31:36 31° S 01:35:41 10° ESE visible
19 Jul - 03:47:20 10° WSW 03:51:05 24° SSW 03:55:51 10° SE visible
19 Jul - 23:28:25 10° SW 23:32:56 24° SSE 23:36:35 10° ESE visible
20 Jul - 01:48:23 10° WSW 01:52:21 31° S 01:56:31 10° ESE visible
20 Jul - 04:08:33 10° WSW 04:11:54 19° SSW 04:16:03 10° SSE visible
20 Jul - 21:29:51 10° SSW 21:33:47 15° SSE 21:36:56 10° SE visible
20 Jul - 23:48:59 10° SW 23:53:43 28° S 23:57:34 10° ESE visible
21 Jul - 02:09:17 10° WSW 02:13:07 28° S 02:17:13 10° SE visible
21 Jul - 04:30:12 10° SW 04:32:44 14° SSW 04:35:41 10° S visible
21 Jul - 21:49:26 10° SSW 21:54:41 20° SSE 21:58:35 10° ESE visible
22 Jul - 00:09:42 10° WSW 00:14:30 31° S 00:18:26 10° ESE visible
22 Jul - 02:30:16 10° WSW 02:33:52 24° SSW 02:37:46 10° SE visible
22 Jul - 19:52:36 10° S 19:54:54 11° SSE 19:56:57 10° SE daylight
22 Jul - 22:09:36 10° SW 22:15:34 25° SSE 22:19:48 10° ESE visible
23 Jul - 00:30:34 10° WSW 00:35:16 32° S 00:39:14 10° ESE visible
23 Jul - 02:51:25 10° WSW 02:54:36 19° SSW 02:58:05 10° SSE visible
23 Jul - 20:10:22 10° SSW 20:15:55 16° SSE 20:20:07 10° ESE daylight
23 Jul - 22:30:07 10° SW 22:36:26 30° S 22:40:48 10° ESE visible
24 Jul - 00:51:30 10° WSW 00:56:01 31° S 00:59:56 10° SE visible
24 Jul - 03:12:55 10° SW 03:15:21 14° SSW 03:17:56 10° SSE visible
24 Jul - 20:29:45 10° SSW 20:36:55 21° SSE 20:41:52 10° ESE daylight
24 Jul - 22:50:52 10° WSW 22:57:15 34° S 23:01:41 10° ESE visible
25 Jul - 01:12:30 10° WSW 01:16:45 28° SSW 01:20:32 10° SE night (unlit)
25 Jul - 18:32:43 10° S 18:36:30 12° SSE 18:39:44 10° SE daylight
25 Jul - 20:49:47 10° SW 20:57:53 27° SSE 21:03:10 10° ESE visible
25 Jul - 23:11:46 10° WSW 23:18:04 37° S 23:22:29 10° ESE visible
26 Jul - 01:33:38 10° WSW 01:37:27 23° SSW 01:40:58 10° SE night (unlit)
26 Jul - 18:50:11 10° S 18:57:36 17° SSE 19:03:04 10° ESE daylight
26 Jul - 21:10:14 10° SW 21:18:49 33° SSE 21:24:13 10° ESE visible
26 Jul - 23:32:46 10° WSW 23:38:52 37° S 23:43:12 10° ESE visible
